Preview of NWS' New Version of Forecast
This preview is not operational and should not be used for support decisions.
Latest weather observations around

Batavia Clermont County Airport (KI69)

Using English Units (Switch to International System of Units)
Date/ Time (EDT) Wind (mph) Vis. (mi) Weather Sky Cond. Temp (°F) Rel. Humidity Wind Chill (°F) Heat Index (°F) Pressure Precip. (in)
Air Dwpt 6 hour Altimeter (inHg) Sea level (inHg) 1 hr 3 hr 6 hr
Max Min
Jun 22 12:16 SSW 7 10 Partly Cloudy SCT024 SCT030 SCT120 79 66     63%   80 29.76        
Jun 22 11:56 SW 11 10 Partly Cloudy SCT024 SCT120 79 66     65%   80 29.76        
Jun 22 11:36 SSW 7 10 Partly Cloudy SCT120 78 67     69%   79 29.75        
Jun 22 11:17 SW 13 10 Partly Cloudy SCT019 SCT120 78 68     73%   78 29.76        
Jun 22 10:56 SW 8 10 Mostly Cloudy SCT017 BKN024 76 69     79%   77 29.76        
Jun 22 10:36 SW 7 10 Partly Cloudy SCT017 76 69     81%   77 29.76        
Jun 22 10:17 SW 6 10 Mostly Cloudy SCT009 BKN015 BKN021 74 71     87%   76 29.76        
Jun 22 09:56 SSW 6 10 Cloudy BKN009 OVC014 73 71     93%   75 29.76        
Jun 22 09:36 SW 7 10 Cloudy BKN009 OVC014 74 72     94%   75 29.76        
Jun 22 09:17 SW 9 10 Cloudy OVC009 73 72     96%   74 29.76        
Jun 22 08:56 SW 6 10 Cloudy OVC007 72 72     99%   74 29.75        
Jun 22 08:36 SSW 7 10 Cloudy OVC005 72 72     100%   73 29.75        
Jun 22 08:17 SSW 5 7 Cloudy OVC005 71 71     100%   72 29.76        
Jun 22 07:56 S 5 5 Fog/Mist OVC005 71 71     100%   72 29.75        
Jun 22 07:36 SSW 3 7 Cloudy OVC005 70 70     100%   72 29.75        
Jun 22 07:17 Calm 7 Cloudy OVC007 70 70     100%     29.74        
Jun 22 06:56 Calm 5 Fog/Mist OVC010 69 69     100%     29.74        
Jun 22 06:37 SSE 3 7 Mostly Cloudy BKN012 BKN110 69 69     100%     29.73        
Jun 22 06:17 Calm 7 Partly Cloudy SCT120 69 69     100%     29.73        
Jun 22 05:56 Calm 7 Mostly Cloudy SCT006 BKN120 69 69     100%     29.72        
Jun 22 05:37 Calm 10 Cloudy OVC006 70 70     100%   72 29.72        
Jun 22 05:17 Calm 10 Cloudy OVC006 70 70     100%   72 29.72        
Jun 22 04:56 Calm 10 Cloudy BKN006 OVC010 71 71     100%   72 29.72        
Jun 22 04:37 WSW 5 10 Cloudy BKN006 OVC012 70 70     100%   72 29.72        
Jun 22 04:16 Calm 10 Cloudy BKN011 BKN022 OVC039 70 70     100%     29.72        
Jun 22 04:15 Calm 10 Cloudy BKN011 BKN022 OVC039 70 70     100%     29.72        
Jun 22 03:56 Calm 10 Mostly Cloudy SCT011 SCT019 BKN026 70 70     100%     29.72        
Jun 22 03:37 Calm 10 Cloudy BKN015 OVC019 70 70     100%     29.72        
Jun 22 03:16 SE 3 7 Cloudy BKN017 OVC026 70 70     100%     29.72        
Jun 22 03:15 Calm 7 Cloudy BKN017 OVC026 70 70     100%     29.72        
Jun 22 02:56 Calm 7 Cloudy SCT007 BKN017 OVC040 70 70     100%     29.72        
Jun 22 02:37 Calm 5 Fog/Mist SCT002 OVC017 70 70     100%     29.72        
Jun 22 02:16 Calm 0.75 Fog/Mist OVC002 70 70     100%     29.73        
Jun 22 02:15 Calm 0.75 Fog/Mist OVC002 70 70     100%     29.73        
Jun 22 01:56 Calm 1 Fog/Mist BKN004 BKN017 OVC029 70 70     100%     29.74       0
Jun 22 01:37 Calm 0.5 Fog BKN002 BKN020 OVC037 70 70     100%   72 29.74        
Jun 22 01:16 Calm 10 Light Rain SCT060 BKN110 71 71     100%   72 29.75        
Jun 22 01:15 Calm 10 Rain SCT050 SCT070 OVC110 71 71     100%   72 29.75        
Jun 22 00:56 Calm 10 Drizzle SCT050 SCT110 71 71     100%   72 29.76        
Jun 22 00:37 S 3 7 Partly Cloudy SCT003 SCT028 SCT095 71 71     100%   72 29.76        
Jun 22 00:16 SSE 3 7 Partly Cloudy SCT003 SCT095 71 71     100%   72 29.76        
Jun 22 00:15 SSE 3 7 Partly Cloudy SCT003 SCT095 71 71     100%   72 29.76        
Jun 21 23:56 Calm 10 Mostly Cloudy SCT070 BKN095 BKN120 71 71     100%   73 29.76   0    
Jun 21 23:36 Calm 10 Cloudy SCT041 SCT050 OVC070 71 71     100%   73 29.77   0    
Jun 21 23:17 Calm 10 Light Rain SCT050 BKN060 OVC120 71 71     100%   73 29.77   0    
Jun 21 22:56 S 3 7 Light Rain SCT022 BKN060 OVC120 71 71     100%   73 29.78   0 0  
Jun 21 22:36 SSE 3 5 Rain SCT060 BKN110 71 71     100%   73 29.77   0    
Jun 21 22:17 Calm 10 Partly Cloudy SCT120 71 71     100%   73 29.76        
Jun 21 21:56 Calm 10 Mostly Cloudy BKN035 BKN043 BKN055 71 71     100%   73 29.76   0    
Jun 21 21:36 Calm 10 Cloudy SCT038 BKN044 OVC120 72 72     100%   73 29.76   0    
Jun 21 21:17 Calm 10 Light Rain SCT016 BKN044 OVC120 72 72     100%   74 29.76   0    
Jun 21 20:56 NW 3 10 Mostly Cloudy BKN017 BKN120 73 72     99%   74 29.76        
Jun 21 20:37 NNW 3 10 Cloudy BKN015 OVC050 73 73     100%   75 29.76        
Jun 21 20:16 NNW 3 10 Cloudy SCT010 SCT014 OVC050 74 73     98%   75 29.75        
Jun 21 19:56 WNW 5 10 Cloudy BKN010 OVC050 74 73     97%   75 29.75       0
Jun 21 19:37 W 5 10 Mostly Cloudy BKN050 74 73     95%   76 29.74        
Jun 21 19:16 W 5 7 Cloudy BKN029 BKN040 OVC048 73 72     98%   74 29.74        
Jun 21 18:56 WSW 10 7 Light Rain SCT013 SCT019 OVC029 74 72     94%   76 29.74        
Jun 21 18:37 WSW 9 10 Cloudy BKN015 BKN021 OVC028 75 72     91%   77 29.73        
Jun 21 18:16 SW 7 10 Cloudy SCT010 OVC015 75 73     92%   77 29.74        
Jun 21 17:56 SSW 5 10 Cloudy BKN014 BKN023 OVC037 75 74     95%   77 29.74        
Jun 21 17:37 SW 5 10 Cloudy BKN012 OVC023 74 73     98%   75 29.75        
Jun 21 17:16 Calm 7 Light Drizzle SCT012 BKN018 OVC025 73 73     100%   75 29.75        
Jun 21 16:57 S 5 10 Rain BKN025 BKN032 OVC060 73 72     99%   74 29.75        
Jun 21 16:37 S 3 10 Cloudy SCT009 BKN020 OVC060 73 72     98%   75 29.76        
Jun 21 16:16 S 5 10 Mostly Cloudy SCT008 BKN015 BKN020 74 73     95%   76 29.77        
Jun 21 15:57 S 5 10 Cloudy SCT008 BKN070 OVC080 74 73     97%   76 29.77   0    
Jun 21 15:37 S 3 10 Light Drizzle SCT008 BKN029 OVC060 74 73     99%   75 29.77   0    
Jun 21 15:16 S 5 5 Light Rain BKN007 BKN010 OVC027 72 72     100%   74 29.78   0    
Jun 21 14:57 Calm 2 Rain BKN007 OVC015 72 72     100%   74 29.78   0    
Jun 21 14:36 ESE 3 3 Rain SCT011 BKN055 OVC085 73 73     100%   75 29.78   0    
Jun 21 14:35 ESE 3 3 Rain SCT011 BKN055 OVC085 73 73     100%   75 29.78   0    
Jun 21 14:16 Calm 10 Rain SCT009 BKN070 OVC085 74 73     98%   75 29.79        
Jun 21 13:57 SE 5 7 Drizzle SCT009 OVC015 74 74     98%   76 29.79        
Jun 21 13:36 Calm 7 Light Rain BKN007 BKN012 OVC075 74 74     99%   76 29.8        
Jun 21 13:16 SE 3 10 Cloudy BKN007 BKN035 OVC070 74 74     100%   76 29.8        
Jun 21 12:57 Calm 10 Cloudy SCT007 OVC070 73 73     100%   75 29.81        
Jun 21 12:36 Calm 7 Light Drizzle OVC070 73 73     99%   75 29.82        
Jun 21 12:16 S 3 10 Cloudy SCT006 SCT030 OVC080 73 73     100%   75 29.82        
Jun 21 11:57 Calm 10 Light Rain SCT006 SCT035 OVC080 73 73     100%   75 29.82   0    
Jun 21 11:36 W 5 5 Heavy Rain SCT006 BKN050 OVC070 73 73     100%   75 29.82   0    
Jun 21 11:17 SW 5 7 Light Rain SCT006 BKN014 OVC070 73 73     100%   75 29.83   0    
Jun 21 10:56 SSW 3 7 Light Rain BKN012 BKN021 OVC032 73 73     100%   75 29.83   0 0  
Jun 21 10:55 SSW 3 7 Light Rain BKN012 BKN021 OVC034 73 73     100%   75 29.83   0 0  
Jun 21 10:36 SSW 3 7 Rain OVC008 73 73     100%   75 29.84        
Jun 21 10:17 SSW 6 10 Light Drizzle BKN008 OVC012 74 73     99%   75 29.84        
Jun 21 09:56 S 5 10 Cloudy BKN008 BKN013 OVC033 74 73     99%   75 29.84        
Jun 21 09:55 S 3 10 Cloudy BKN008 OVC033 74 73     99%   75 29.84        
Jun 21 09:36 SSE 3 10 Light Rain BKN008 OVC033 73 73     100%   75 29.84        
Jun 21 09:17 Calm 10 Cloudy OVC008 73 73     99%   75 29.84        
Jun 21 08:56 Calm 10 Cloudy OVC006 73 73     98%   75 29.84        
Jun 21 08:55 Calm 10 Cloudy OVC006 73 73     98%   75 29.84        
Jun 21 08:36 Calm 10 Mostly Cloudy SCT006 BKN025 BKN034 73 73     99%   75 29.84        
Jun 21 08:17 SSW 3 10 Partly Cloudy SCT025 SCT110 72 72     100%   74 29.84        
Jun 21 07:56 Calm 10 Partly Cloudy SCT050 SCT110 71 71     100%   73 29.84   0   0
Jun 21 07:55 Calm 10 Partly Cloudy SCT050 SCT110 71 71     100%   73 29.84   0   0
Jun 21 07:37 Calm 7 Mostly Cloudy BKN110 71 71     100%   72 29.83        
Jun 21 07:17 Calm 7 Light Rain SCT006 SCT032 OVC110 71 71     100%   72 29.84        
Jun 21 06:56 Calm 2.5 Heavy Rain SCT004 BKN030 OVC090 71 71     100%   73 29.84   0    
Jun 21 06:55 Calm 2.5 Heavy Rain SCT004 BKN030 OVC090 71 71     100%   73 29.85   0    
Jun 21 06:36 W 7 7 Light Rain SCT065 BKN090 OVC120 72 72     100%   73 29.85   0    
Jun 21 06:17 WSW 5 10 Rain SCT120 72 72     100%   73 29.84        
Jun 21 05:56 SW 7 10 Drizzle SCT033 SCT050 BKN120 72 72     100%   73 29.83   0    
Jun 21 05:55 SW 7 10 Drizzle SCT033 SCT050 BKN110 72 72     100%   73 29.83   0    
Jun 21 05:37 SW 7 10 Rain SCT036 SCT060 BKN110 72 72     100%   74 29.84   0    
Jun 21 05:17 Calm 10 Mostly Cloudy BKN110 72 72     100%   74 29.83        
Jun 21 04:56 WSW 3 10 Light Rain SCT090 BKN110 72 72     100%   74 29.83   0 0  
Jun 21 04:37 Calm 7 Rain SCT017 OVC090 73 73     100%   74 29.83   0    
Jun 21 04:17 Calm 10 Cloudy BKN019 OVC025 72 72     100%   74 29.83        
Jun 21 03:56 SW 3 10 Partly Cloudy SCT025 72 72     100%   73 29.83        
Jun 21 03:55 SW 3 10 Partly Cloudy SCT027 71 71     100%   73 29.83        
Jun 21 03:37 Calm 7 Clear CLR 72 72     100%   73 29.83        
Jun 21 03:17 Calm 5 Fog/Mist CLR 71 71     100%   73 29.83        
Jun 21 02:56 Calm 7 Clear CLR 72 72     100%   74 29.84        
Jun 21 02:55 Calm 7 Clear CLR 72 72     100%   74 29.84        
Jun 21 02:37 NNE 5 10 Partly Cloudy SCT044 SCT055 SCT080 72 72     100%   74 29.84        
Jun 21 02:17 Calm 10 Cloudy SCT038 BKN065 OVC080 72 72     100%   74 29.85        
Jun 21 01:56 Calm 10 Mostly Cloudy SCT040 BKN065 BKN080 74 73     96%   76 29.86        
Jun 21 01:55 Calm 10 Mostly Cloudy SCT040 BKN065 BKN080 74 73     96%   76 29.86        
Jun 21 01:37 SW 3 10 Partly Cloudy SCT038 SCT060 SCT075 74 73     98%   75 29.86        
Jun 21 01:17 Calm 10 Clear CLR 74 73     99%   75 29.86        
Jun 21 00:56 Calm 10 Clear CLR 73 72     98%   74 29.85        
Jun 21 00:55 Calm 10 Clear CLR 73 72     96%   75 29.85        
Jun 21 00:37 SSW 3 10 Partly Cloudy SCT045 75 73     96%   76 29.86        
Jun 21 00:16 Calm 10 Partly Cloudy SCT080 74 73     97%   76 29.86        
Jun 21 00:15 Calm 10 Partly Cloudy SCT080 74 73     98%   76 29.86        
Jun 20 23:56 Calm 10 Mostly Cloudy BKN070 76 73     91%   78 29.87        
Jun 20 23:37 SW 6 10 Mostly Cloudy SCT070 BKN080 76 73     91%   78 29.87        
Jun 20 23:16 SSW 3 10 Mostly Cloudy SCT055 SCT070 BKN080 76 72     87%   78 29.87        
Jun 20 22:56 SW 5 10 Partly Cloudy SCT055 77 71     82%   78 29.87        
Jun 20 22:37 Calm 10 Clear CLR 76 71     83%   78 29.87        
Jun 20 22:16 SSW 3 10 Clear CLR 77 71     81%   78 29.86        
Jun 20 21:56 SW 5 10 Clear CLR 77 71     79%   79 29.85        
Jun 20 21:37 SSW 5 10 Clear CLR 78 70     77%   79 29.84        
Jun 20 21:16 SSW 5 10 Clear CLR 79 70     74%   82 29.83        
Jun 20 21:15 SW 5 10 Clear CLR 79 70     74%   82 29.83        
Jun 20 20:56 WSW 6 10 Clear CLR 80 70     71%   84 29.83        
Jun 20 20:37 WSW 7 10 Clear CLR 81 70     71%   84 29.82        
Jun 20 20:16 SW 8 10 Partly Cloudy SCT030 SCT042 SCT050 81 70     70%   84 29.82        
Jun 20 19:56 SW 11 10 Mostly Cloudy SCT030 SCT034 BKN044 82 70     68%   86 29.82        
Jun 20 19:37 WSW 8 10 Partly Cloudy SCT042 84 66     55%   87 29.82        
Jun 20 19:16   10 Clear CLR 86 66     51%   88 29.82        
Jun 20 18:56 WNW 11 10 Clear CLR 86 66     51%   88 29.81        
Jun 20 18:37 NW 9 10 Clear CLR 86 65     50%   88 29.82        
Jun 20 18:16 W 10 10 Partly Cloudy SCT060 87 66     50%   89 29.82        
Jun 20 17:57 W 10 10 Clear CLR 87 65     49%   89 29.83        
Jun 20 17:37 W 8 10 Partly Cloudy SCT048 86 66     51%   89 29.84        
Jun 20 17:16 WNW 13 10 Partly Cloudy SCT048 SCT120 86 66     51%   88 29.84        
Jun 20 16:57 W 11 10 Partly Cloudy SCT048 SCT055 SCT120 87 65     49%   89 29.83        
Jun 20 16:37   10 Clear CLR 88 65     46%   90 29.83        
Jun 20 16:16 WNW 13 10 Partly Cloudy SCT046 89 66     47%   91 29.83        
Jun 20 15:57 W 9 10 Partly Cloudy SCT046 SCT060 88 67     50%   91 29.83        
Jun 20 15:36 NW 11 10 Partly Cloudy SCT044 SCT050 SCT070 87 67     52%   91 29.83        
Jun 20 15:35 WNW 13 10 Partly Cloudy SCT042 SCT050 SCT070 88 67     51%   91 29.83        
Jun 20 15:16 W 9 10 Mostly Cloudy BKN042 BKN050 BKN075 85 68     56%   89 29.84        
Jun 20 14:57 W 7 10 Mostly Cloudy BKN042 BKN050 BKN075 86 69     58%   90 29.86        
Jun 20 14:36 SW 8 10 Mostly Cloudy BKN044 BKN055 BKN075 85 69     58%   88 29.87        
Jun 20 14:35 SW 8 10 Mostly Cloudy BKN042 BKN055 BKN075 85 69     58%   88 29.87        
Jun 20 14:16 WNW 9 10 Cloudy BKN040 BKN050 OVC110 86 68     55%   90 29.87        
Jun 20 13:57 WSW 7 10 Cloudy BKN038 BKN045 OVC055 86 68     55%   89 29.87        
Jun 20 13:36 WSW 7 10 Mostly Cloudy SCT038 SCT043 BKN050 87 69     55%   91 29.88        
Jun 20 13:35 WSW 7 10 Mostly Cloudy SCT038 SCT045 BKN050 87 68     54%   90 29.88        
Jun 20 13:16 W 10 10 Partly Cloudy SCT037 SCT043 86 69     57%   90 29.89        
Jun 20 12:57 SW 8 10 Partly Cloudy SCT032 SCT040 85 68     57%   89 29.89        
Jun 20 12:36 SW 7 10 Partly Cloudy SCT032 86 69     57%   90 29.89        
Jun 20 12:35 SW 7 10 Partly Cloudy SCT032 86 69     58%   90 29.89        
Jun 20 12:16 WSW 8 10 Mostly Cloudy BKN030 84 69     61%   88 29.91        
Jun 20 11:57 SW 8 10 Mostly Cloudy BKN028 84 69     61%   88 29.91        
Jun 20 11:36 NW 7 10 Partly Cloudy SCT028 SCT034 82 69     63%   86 29.91        
Jun 20 11:35 NW 7 10 Partly Cloudy SCT028 SCT034 82 69     63%   86 29.91        
Jun 20 11:16 W 8 10 Mostly Cloudy BKN028 BKN038 82 69     63%   86 29.91        
Jun 20 10:57 W 9 10 Mostly Cloudy SCT026 BKN030 BKN038 81 69     67%   85 29.91        
Jun 20 10:36 W 11 10 Mostly Cloudy BKN020 BKN026 80 69     70%   83 29.91        
Jun 20 10:35 W 9 10 Cloudy BKN020 OVC026 80 70     71%   83 29.91        
Jun 20 10:16 W 5 10 Mostly Cloudy BKN018 BKN026 80 72     77%   83 29.92        
Jun 20 09:57 WSW 7 10 Partly Cloudy SCT016 SCT021 79 73     82%   82 29.92        
Jun 20 09:36 WSW 9 10 Clear CLR 78 72     81%   80 29.93        
Jun 20 09:35 WSW 10 10 Clear CLR 78 72     80%   80 29.93        
Jun 20 09:17 SW 8 10 Clear CLR 78 71     80%   79 29.92        
Jun 20 08:56 WSW 8 10 Clear CLR 77 72     85%   78 29.92        
Jun 20 08:55 WSW 8 10 Clear CLR 77 72     85%   78 29.92        
Jun 20 08:36 SW 6 10 Clear CLR 76 73     89%   78 29.92        
Jun 20 08:17 SW 6 10 Clear CLR 75 73     94%   77 29.92        
Jun 20 07:56 SW 3 10 Clear CLR 74 73     98%   76 29.92        
Jun 20 07:55 Calm 10 Clear CLR 74 73     98%   75 29.92        
Jun 20 07:36 Calm 7 Clear CLR 72 72     100%   73 29.92        
Jun 20 07:17 Calm 7 Partly Cloudy SCT060 70 70     100%     29.92        
Jun 20 06:56 Calm 10 Partly Cloudy SCT060 70 70     100%     29.93        
Jun 20 06:55 Calm 10 Partly Cloudy SCT060 70 70     100%     29.93        
Jun 20 06:36 Calm 0.5 Fog BKN060 69 69     100%     29.92        
Jun 20 06:17 Calm 2.5 Fog/Mist CLR 69 69     100%     29.92        
Jun 20 05:56 Calm 10 Clear CLR 70 70     100%   72 29.91        
Jun 20 05:55 Calm 10 Clear CLR 70 70     100%   72 29.91        
Jun 20 05:36 Calm 10 Clear CLR 70 70     100%     29.91        
Jun 20 05:17 Calm 10 Clear CLR 70 70     100%   72 29.91        
Jun 20 04:56 Calm 10 Clear CLR 71 71     100%   72 29.89        
Jun 20 04:55 Calm 10 Clear CLR 71 71     100%   72 29.89        
Jun 20 04:36 S 3 10 Clear CLR 71 71     100%   73 29.89        
Jun 20 04:17 SW 3 10 Clear CLR 71 71     100%   73 29.9        
Jun 20 03:56 SSW 6 10 Clear CLR 71 71     100%   72 29.89        
Jun 20 03:55 S 5 10 Clear CLR 71 71     100%   72 29.89        
Jun 20 03:36 SSW 6 10 Clear CLR 71 71     100%   72 29.9        
Jun 20 03:17 S 5 10 Clear CLR 71 71     100%   73 29.91        
Jun 20 02:56 SSW 5 10 Clear CLR 71 71     100%   73 29.92        
Jun 20 02:55 SSW 5 10 Clear CLR 71 71     100%   73 29.92        
Jun 20 02:36 SSW 3 10 Clear   71 71     100%   72 29.92        
Jun 20 02:17 S 3 10 Clear   71 71     100%   72 29.92        
Jun 20 01:56 Calm 10 Clear CLR 71 71     100%   72 29.93       0
Jun 20 01:55 Calm 10 Clear CLR 71 71     100%   72 29.93       0
Jun 20 01:37 SW 3 10 Clear CLR 71 71     100%   72 29.94        
Jun 20 01:17 SW 5 10 Clear CLR 71 71     100%   72 29.94        
Jun 20 00:56 SW 5 10 Clear CLR 71 71     100%   72 29.96        
Jun 20 00:55 SSW 6 10 Clear CLR 71 71     100%   72 29.96        
Jun 20 00:36 Calm 10 Partly Cloudy SCT070 SCT080 SCT100 71 71     100%   72 29.96        
Jun 20 00:17 Calm 10 Mostly Cloudy SCT048 SCT060 BKN080 71 71     100%   73 29.96        
Jun 19 23:56 Calm 10 Mostly Cloudy SCT050 SCT060 BKN095 71 71     100%   72 29.97        
Jun 19 23:55 Calm 10 Mostly Cloudy SCT050 SCT060 BKN095 71 71     100%   72 29.97        
Jun 19 23:36 Calm 10 Partly Cloudy SCT050 71 71     100%   72 29.97        
Jun 19 23:17 Calm 10 Partly Cloudy SCT050 SCT060 71 71     100%   73 29.96        
Jun 19 22:57 Calm 10 Mostly Cloudy BKN046 BKN050 BKN060 72 72     100%   73 29.97        
Jun 19 22:55 Calm 10 Mostly Cloudy BKN046 BKN050 BKN060 71 71     100%   73 29.97     0  
Jun 19 22:36 NNW 5 10 Cloudy BKN044 OVC050 72 72     100%   73 29.97        
Jun 19 22:17 Calm 10 Mostly Cloudy SCT046 BKN050 71 71     100%   73 29.96        
Jun 19 21:56 SE 3 10 Light Drizzle SCT049 SCT065 SCT080 71 71     100%   72 29.96   0    
Jun 19 21:55 ESE 3 10 Light Drizzle SCT049 SCT065 SCT080 71 71     100%   72 29.96   0    
Jun 19 21:37 SE 8 10 Light Rain SCT060 SCT100 BKN120 71 71     99%   73 29.96   0    
Jun 19 21:17 Calm 10 Rain SCT048 BKN060 OVC095 72 70     96%   73 29.96   0    
Jun 19 20:56 NNE 3 7 Light Rain SCT018 BKN060 OVC085 72 69     91%   73 29.94   0    
Jun 19 20:55 NNE 5 7 Rain SCT018 BKN060 OVC085 72 69     91%   73 29.95   0    
Jun 19 20:37   1.5 Light Rain SCT014 BKN024 OVC045 72 69     90%   74 29.95   0    
Jun 19 20:17 N 11 10 Mostly Cloudy SCT024 SCT041 BKN049 80 70     73%   83 29.95        
Jun 19 19:56 SE 3 10 Clear CLR 79 72     79%   82 29.93        
Jun 19 19:55 SE 3 10 Clear CLR 79 72     79%   82 29.93        
Jun 19 19:37 SE 5 10 Clear CLR 83 72     70%   88 29.93        
Jun 19 19:17 ENE 3 10 Clear CLR 85 71     61%   90 29.93        
Jun 19 18:56 Calm 10 Light Rain SCT060 SCT070 SCT100 86 69     57%   90 29.92        
Jun 19 18:55 Calm 10 Light Rain SCT060 SCT100 86 69     58%   90 29.92        
Jun 19 18:37 Calm 10 Light Rain SCT043 SCT050 BKN090 81 71     71%   84 29.92        
Jun 19 18:17 S 3 10 Partly Cloudy SCT050 82 71     69%   86 29.93        
Jun 19 18:15 S 3 10 Partly Cloudy SCT050 82 70     68%   86 29.93        
Jun 19 17:56 ESE 3 10 Partly Cloudy SCT050 SCT100 83 70     65%   88 29.93        
Jun 19 17:55 ESE 3 10 Partly Cloudy SCT050 SCT100 83 70     65%   88 29.93        
Jun 19 17:37 S 8 10 Partly Cloudy SCT049 SCT065 SCT100 85 70     61%   89 29.93        
Jun 19 17:16 E 9 10 Mostly Cloudy BKN049 BKN065 BKN100 81 69     68%   84 29.93        
Jun 19 17:15 E 9 10 Mostly Cloudy BKN049 BKN055 BKN065 81 69     68%   84 29.93        
Jun 19 16:56 NE 8 10 Cloudy BKN047 OVC065 81 70     68%   85 29.94        
Jun 19 16:55 ENE 9 10 Cloudy BKN047 OVC065 81 70     69%   85 29.94        
Jun 19 16:37 NE 10 10 Cloudy BKN047 BKN055 OVC065 84 70     63%   88 29.94        
Jun 19 16:16 W 9 10 Mostly Cloudy SCT047 BKN055 BKN075 90 68     48%   95 29.93        
Jun 19 16:15 W 9 10 Mostly Cloudy SCT047 BKN055 BKN065 90 68     48%   95 29.93        
Jun 19 15:56 W 10 10 Partly Cloudy SCT049 SCT070 92 68     45%   97 29.93        
Jun 19 15:55 WSW 13 10 Partly Cloudy SCT049 SCT070 93 68     45%   97 29.93        
Jun 19 15:37   10 Partly Cloudy SCT047 SCT055 SCT070 91 68     48%   95 29.93        
Jun 19 15:16 WSW 13 10 Partly Cloudy SCT045 SCT055 92 69     46%   97 29.93        
Jun 19 15:15 WSW 11 10 Partly Cloudy SCT045 SCT055 92 69     46%   97 29.93        
Jun 19 14:57 SW 13 10 Clear CLR 92 69     47%   97 29.93        
Jun 19 14:36   10 Clear CLR 92 69     48%   97 29.94        
Jun 19 14:35   10 Clear CLR 92 70     49%   97 29.94        
Jun 19 14:16 WSW 14 10 Clear CLR 91 71     52%   97 29.94        
Jun 19 13:57 SW 13 10 Partly Cloudy SCT039 SCT049 SCT065 91 69     49%   96 29.96        
Jun 19 13:36 WSW 13 10 Mostly Cloudy SCT037 SCT043 BKN049 92 71     51%   98 29.97        
Jun 19 13:35 WSW 14 10 Mostly Cloudy SCT037 SCT043 BKN049 91 71     51%   98 29.97        
Jun 19 13:17 W 9 10 Mostly Cloudy SCT037 SCT048 BKN055 90 71     52%   96 29.99        
Jun 19 12:57 W 10 10 Partly Cloudy SCT033 SCT038 SCT048 89 72     57%   96 29.99        
Jun 19 12:36 W 6 10 Mostly Cloudy BKN033 BKN050 BKN070 87 71     60%   92 30        
Jun 19 12:35 W 7 10 Mostly Cloudy BKN033 BKN050 BKN070 87 71     60%   92 30        
Jun 19 12:17 WNW 9 10 Mostly Cloudy SCT033 SCT039 BKN050 89 72     58%   96 30.01        
Jun 19 11:57 W 7 10 Partly Cloudy SCT031 SCT050 88 72     59%   94 30.01        
May 15 12:56 SW 9 10 Clear CLR 85 60     44%   85 29.97        
May 15 09:56 W 6 10 Clear CLR 78 60     53%   78          
May 15 09:37 WSW 6 10 Clear CLR 78 60     55%   78 29.94        
May 15 09:16 WSW 8 10 Clear CLR 77 60     56%   77 29.94        
May 15 07:16 WSW 6 10 Clear CLR 71 64     80%   72          
May 15 05:57 SW 6 10 Partly Cloudy SCT090 72 64     75%   73          
May 15 02:57 SW 6 10 Clear CLR 74 63     69%   74          
May 15 01:57 SSW 3 10 Clear CLR 74 63     67%   75 29.9        
May 15 01:16 SSW 3 10 Clear CLR 75 62     65%   75          
May 14 15:56 NE 5 10 Partly Cloudy SCT060 85 65     52%   87          
May 14 11:56 WNW 11 10 Clear CLR 85 64     50%   86          
May 14 09:37 WSW 7 10 Clear CLR 79 65     63%   79          
May 14 06:57 SW 5 10 Clear CLR 69 63     81%              
May 14 06:36 SW 5 10 Clear   69 63     81%     30        
May 13 17:17 SW 14 10 Mostly Cloudy SCT050 BKN070 BKN085 86 63     47%   87 29.98        
May 13 16:37 WSW 13 10 Partly Cloudy SCT050 SCT065 SCT085 87 63     46%   88 29.98        
May 13 11:37   10 Partly Cloudy SCT047 82 63     53%   83 30.04        
May 13 05:57 SW 5 10 Clear CLR 67 62     83%     30.03        
May 13 04:36 Calm 10 Clear CLR 66 62     88%              
May 13 00:57 SSW 5 10 Clear CLR 73 63     71%   73          
May 12 20:17 Calm 10 Clear CLR 80 61     54%   80          
May 12 19:56 S 5 10 Clear CLR 80 61     53%   81 30        
May 12 13:17   10 Partly Cloudy SCT047 83 61     48%   83 30.05        
May 12 09:17 WSW 13 10 Clear CLR 75 60     59%   75          
Notice The following observation data may not be complete
May 12 07:37   10 Clear CLR          %              
May 12 02:17 SW 3 10 Clear CLR 71 59     68%   70          
May 12 00:56 Calm 10 Clear CLR 73 59     60%   73 30.01        
May 11 21:56 Calm 5 Haze CLR 76 58     53%   76          
May 11 20:17 SSW 5 10 Clear CLR 80 56     45%   79          
May 11 19:56 SW 5 10 Clear CLR 81 56     43%   81 29.95        
May 11 17:56 SW 10 10 Clear CLR 85 55     37%   84 29.95        
May 11 17:37   10 Clear CLR 85 56     37%   83 29.94        
May 11 16:37 SW 15 10 Partly Cloudy SCT065 84 55     37%   83 29.97        
May 11 14:17   10 Partly Cloudy SCT055 84 55     38%   83 30        
May 11 12:37 WSW 10 10 Clear CLR 79 63     57%   80          
May 11 12:17 SSW 7 10 Clear CLR 78 62     58%   79 30.04        
May 11 08:17 Calm 10 Clear CLR 63 56     77%              
Notice The following observation data may not be complete
Jun 12 07:36   10 Clear CLR          %              
Jun 12 07:16 SW 3 10 Clear CLR 72 63     72%   73          
Jun 12 03:36 Calm 10 Mostly Cloudy BKN055 71 61     71%   71          
Jun 11 22:56 S 3 10 Clear CLR 76 60     58%   76          
Jun 11 22:16 S 3 10 Clear CLR 77 60     56%   77 30.08        
Jun 11 18:36 SSW 8 10 Partly Cloudy SCT065 85 57     39%   84 30.1        
Jun 11 09:36 SW 9 10 Partly Cloudy SCT055 77 61     58%   77          
Jun 11 07:16 SSW 3 10 Clear CLR 67 60     77%              
Jun 10 23:56 Calm 10 Clear CLR 71 59     64%   71          
Jun 10 21:36 SSW 5 10 Clear CLR 76 58     53%   76          
Jun 10 18:56 SSW 9 10 Clear CLR 83 55     38%   82 30.01        
Jun 10 09:55 SW 6 10 Clear CLR 73 57     57%   73          
Jun 10 03:16 SW 6 10 Clear CLR 65 54     68%              
Notice The following observation data may not be complete
Jun 09 21:36   10 Clear CLR          %              
Jun 09 19:56 SW 8 10 Clear CLR 78 50     36%   78 29.92        
Jun 09 17:16 SW 8 10 Clear   81 48     32%   80 29.92        
Notice The following observation data may not be complete
Jun 09 15:16   10 Clear CLR          %              
Jun 09 13:36 SW 9 10 Clear CLR 78 50     37%   78 29.97        
Notice The following observation data may not be complete
Jun 09 05:36   10 Clear CLR          %              
Notice The following observation data may not be complete
Jun 09 04:36   10 Clear CLR          %              
Jun 09 00:36 Calm 10 Clear CLR 57 53     84%     29.92        
Jun 08 23:15 Calm 10 Clear CLR 63 53     71%     29.92        
Jun 08 20:15 WNW 5 10 Clear CLR 72 49     43%   71 29.9        
Jun 08 08:35 NNE 7 10 Clear CLR 57 52     84%              
Jun 08 03:35 Calm 10 Clear CLR 51 49     93%              
Jun 08 00:16 Calm 10 Clear CLR 55 50     83%     30.04        
Jun 07 16:55 NNE 10 10 Cloudy SCT041 SCT049 OVC060 64 49     59%     30.03        
Jun 07 12:36 NE 7 10 Cloudy BKN047 OVC050 63 51     64%              
Jun 07 10:15 NE 9 10 Cloudy SCT023 BKN036 OVC046 64 52     64%              
Jun 07 09:36 ENE 8 10 Cloudy SCT020 BKN026 OVC034 63 53     70%              
Jun 06 10:35 NNE 8 10 Clear CLR 66 52     61%     29.96        
Jun 06 08:35 NE 5 10 Clear CLR 61 54     78%     29.95        
Jun 06 04:15 NE 5 10 Clear CLR 58 54     84%              
Jun 06 02:35 NE 3 10 Clear CLR 60 55     84%              
Jun 06 00:55 NE 8 10 Clear CLR 64 59     83%              
Jun 05 23:55 NE 5 10 Partly Cloudy SCT080 SCT095 SCT110 66 62     87%              
Jun 05 21:55 Calm 10 Mostly Cloudy SCT075 BKN090 68 64     88%              
Notice The following observation data may not be complete
Jun 05 21:35   10 Mostly Cloudy SCT065 BKN100 BKN120          %              
Jun 05 20:16 NE 3 10 Partly Cloudy SCT017 SCT026 SCT085 70 65     86%     29.77